Flag Weather past 2 weeks in Little Rock, Arkansas, U.S.A.

Now
55 °F

Passing clouds.


Feels Like: 53 °F
Forecast: 47 / 69 °F
Wind: 8 mph from South

Location: Adams Field

Current Time: Nov 28, 2014 at 6:14:47 PM

Latest Report: Nov 28, 2014 at 4:53 PM


Visibility: 10 mi

Pressure: 30.12 "Hg

Humidity: 45%

Dew point: 34 °F

Location of Little RockLocation

Historic Weather in Little Rock — Graph

°F

Little Rock temperature yesterday

Maximum temperature yesterday: 50 °F (at 2:53 PM)
Minimum temperature yesterday: 34 °F (at 11:53 PM)
Average temperature yesterday: 41 °F

Past Weeks' High & Low Weather Summary

 TemperatureHumidityPressure
High67 °F (Nov 22, 2:53 PM)94% (Nov 21, 9:03 PM)30.58 "Hg (Nov 21, 9:03 PM)
Low20 °F (Nov 18, 5:53 AM)19% (Nov 25, 1:53 PM)29.35 "Hg (Nov 23, 3:53 PM)
Average43 °F62%30.19 "Hg
* Reported Nov 13 4:53 PM — Nov 28 4:53 PM, Little Rock, Weather by CustomWeather, © 2014

Note: Actual official high and low records may vary slightly from our data, if they occured in-between our weather recording intervals... More about our weather records

Advertising

Little Rock weather history for previous 24 hours

 ConditionsComfort  
Time TempWeatherWind HumidityBarometerVisibility
4:53 PM
Nov 28
55 °FPassing clouds.8 mph45%30.12 "Hg10 mi
3:53 PM59 °FSunny.10 mph38%30.12 "Hg10 mi
2:53 PM59 °FSunny.13 mph36%30.15 "Hg10 mi
1:53 PM58 °FPassing clouds.9 mph36%30.17 "Hg10 mi
12:53 PM57 °FPassing clouds.8 mph37%30.22 "Hg10 mi
11:53 AM54 °FPassing clouds.12 mph38%30.27 "Hg10 mi
10:53 AM50 °FSunny.9 mph44%30.33 "Hg10 mi
9:53 AM44 °FSunny.12 mph60%30.37 "Hg10 mi
8:53 AM39 °FSunny.6 mph73%30.38 "Hg10 mi
7:53 AM34 °FPassing clouds.6 mph82%30.39 "Hg10 mi
6:53 AM31 °FPassing clouds.No wind82%30.39 "Hg10 mi
5:53 AM32 °FClear.3 mph79%30.39 "Hg10 mi
4:53 AM30 °FClear.No wind82%30.40 "Hg10 mi
3:53 AM32 °FClear.No wind85%30.40 "Hg10 mi
2:53 AM35 °FClear.3 mph75%30.42 "Hg10 mi
1:53 AM35 °FClear.3 mph75%30.42 "Hg10 mi
12:53 AM36 °FClear.8 mph75%30.42 "Hg10 mi
11:53 PM
Nov 27
34 °FPassing clouds.No wind76%30.45 "Hg10 mi
10:53 PM36 °FPassing clouds.No wind73%30.46 "Hg10 mi
9:53 PM39 °FPassing clouds.No wind65%30.48 "Hg10 mi
8:53 PM36 °FPassing clouds.3 mph73%30.48 "Hg10 mi
7:53 PM39 °FPassing clouds.6 mph67%30.48 "Hg10 mi
6:53 PM40 °FPassing clouds.6 mph63%30.48 "Hg10 mi
Weather by CustomWeather, © 2014

See weather overviewHow to use our weather pages